Date String (YYYY-MM-DD hh:mm:ss) UTC,Instrument flags,Ambient pressure (hPa),Sample flow (lpm),Bypass flow (lpm),Sample temperature (°C),Ambient temperature (°C),ASC tube jacket temperature (°C),LED temperature (°C),Box temperature (°C),Sample RH (%),Span deviation,Mass concentration (μg/m³),Mass concentration (μg/m³),Mass concentration (μg/m³)
DateTimeUTC,F1_M11,P_M11,Q1_M11,Q2_M11,T1_M11,T2_M11,T3_M11,T4_M11,T5_M11,U1_M11,ZSPAN_M11,X0_M11,X2_M11,X1_M11
2022-08-29 03:00:00,,0823.8,5.00,0.00,29.6,28.6,00.0,38.3,31.5,18.1,0000.0,0007.00,0003.38,0002.70
2022-08-29 03:01:00,,0823.9,5.00,0.00,29.6,28.7,00.0,38.3,31.6,17.9,0000.0,0007.00,0003.38,0002.69
2022-08-29 03:02:00,,0823.9,5.00,0.00,29.7,28.7,00.0,38.4,31.6,18.0,0000.0,0006.79,0003.37,0002.68
2022-08-29 03:03:00,,0823.9,4.99,0.00,29.7,28.8,00.0,38.4,31.6,17.8,0000.0,0006.32,0003.33,0002.66
2022-08-29 03:04:00,,0823.9,5.00,0.00,29.7,28.8,00.0,38.4,31.7,17.5,0000.0,0006.66,0003.32,0002.63
2022-08-29 03:05:00,,0824.0,5.01,0.00,29.8,28.9,00.0,38.4,31.7,17.3,0000.0,0006.50,0003.28,0002.58
2022-08-29 03:06:00,,0824.0,4.99,0.00,29.8,28.4,00.0,38.4,31.7,17.2,0000.0,0006.42,0003.24,0002.55
2022-08-29 03:07:00,,0823.9,5.01,0.00,29.8,27.1,00.0,38.4,31.6,17.1,0000.0,0006.47,0003.22,0002.52
2022-08-29 03:08:00,,0824.0,5.01,0.00,29.7,26.9,00.0,38.4,31.5,17.1,0000.0,0005.89,0003.21,0002.49
2022-08-29 03:09:00,,0824.0,4.99,0.00,29.7,27.1,00.0,38.3,31.4,17.2,0000.0,0005.93,0003.16,0002.46
2022-08-29 03:10:00,,0823.9,5.00,0.00,29.6,27.4,00.0,38.3,31.4,17.2,0000.0,0006.41,0003.15,0002.42
2022-08-29 03:11:00,,0823.9,5.00,0.00,29.6,27.7,00.0,38.3,31.4,17.2,0000.0,0007.18,0003.14,0002.39
2022-08-29 03:12:00,,0823.9,5.01,0.00,29.6,27.9,00.0,38.3,31.4,17.1,0000.0,0007.63,0003.11,0002.34
2022-08-29 03:13:00,,0823.9,5.00,0.00,29.6,28.1,00.0,38.3,31.4,17.0,0000.0,0007.53,0003.01,0002.28
2022-08-29 03:14:00,,0823.9,5.00,0.00,29.6,28.2,00.0,38.4,31.5,16.9,0000.0,0007.75,0002.97,0002.23
2022-08-29 03:15:00,,0823.9,5.00,0.00,29.6,28.4,00.0,38.4,31.5,17.0,0000.0,0007.95,0002.98,0002.19
2022-08-29 03:16:00,,0823.9,5.00,0.00,29.7,28.5,00.0,38.4,31.5,16.9,0000.0,0007.91,0002.92,0002.16
2022-08-29 03:17:00,,0823.9,5.01,0.00,29.7,28.6,00.0,38.4,31.6,16.9,0000.0,0007.91,0002.89,0002.14
2022-08-29 03:18:00,,0823.9,5.01,0.00,29.7,28.6,00.0,38.4,31.6,16.9,0000.0,0007.81,0002.84,0002.10
2022-08-29 03:19:00,,0823.9,5.01,0.00,29.7,28.7,00.0,38.4,31.6,16.9,0000.0,0007.93,0002.84,0002.06
2022-08-29 03:20:00,,0823.9,4.99,0.00,29.8,28.8,00.0,38.4,31.7,16.8,0000.0,0007.86,0002.86,0002.02
2022-08-29 03:21:00,,0823.9,5.00,0.00,29.8,28.8,00.0,38.5,31.7,16.9,0000.0,0007.58,0002.82,0001.99
2022-08-29 03:22:00,,0823.9,5.00,0.00,29.8,28.9,00.0,38.5,31.7,16.9,0000.0,0007.04,0002.84,0001.97
2022-08-29 03:23:00,,0823.9,5.00,0.00,29.8,28.9,00.0,38.5,31.7,16.8,0000.0,0006.63,0002.86,0001.96
2022-08-29 03:24:00,,0823.9,5.00,0.00,29.8,27.8,00.0,38.5,31.7,16.8,0000.0,0006.81,0002.90,0001.94
2022-08-29 03:25:00,,0823.8,4.99,0.00,29.8,26.9,00.0,38.5,31.6,16.7,0000.0,0006.19,0002.93,0001.94
2022-08-29 03:26:00,,0823.8,5.01,0.00,29.8,27.0,00.0,38.4,31.6,16.6,0000.0,0005.49,0002.83,0001.92
2022-08-29 03:27:00,,0823.8,5.00,0.00,29.7,27.2,00.0,38.4,31.4,16.7,0000.0,0005.47,0002.82,0001.92
2022-08-29 03:28:00,,0823.8,5.00,0.00,29.7,27.5,00.0,38.4,31.4,16.7,0000.0,0005.87,0002.79,0001.91
2022-08-29 03:29:00,,0823.8,4.99,0.00,29.6,27.8,00.0,38.4,31.4,16.7,0000.0,0005.98,0002.81,0001.91
2022-08-29 03:30:00,,0823.8,5.01,0.00,29.6,28.0,00.0,38.4,31.5,16.7,0000.0,0005.76,0002.75,0001.91
2022-08-29 03:31:00,,0823.8,5.00,0.00,29.6,28.2,00.0,38.4,31.5,16.9,0000.0,0005.74,0002.75,0001.90
2022-08-29 03:32:00,,0823.8,4.99,0.00,29.7,28.3,00.0,38.4,31.5,16.9,0000.0,0005.70,0002.74,0001.90
2022-08-29 03:33:00,,0823.8,4.99,0.00,29.7,28.4,00.0,38.4,31.5,17.0,0000.0,0005.49,0002.68,0001.88
2022-08-29 03:34:00,,0823.8,5.00,0.00,29.7,28.6,00.0,38.4,31.6,17.2,0000.0,0005.30,0002.66,0001.88
2022-08-29 03:35:00,,0823.7,5.00,0.00,29.7,28.7,00.0,38.5,31.6,17.1,0000.0,0005.06,0002.63,0001.89
2022-08-29 03:36:00,,0823.7,5.00,0.00,29.8,28.7,00.0,38.5,31.7,17.0,0000.0,0005.02,0002.58,0001.88
2022-08-29 03:37:00,,0823.7,5.00,0.00,29.8,28.8,00.0,38.5,31.7,16.9,0000.0,0005.14,0002.58,0001.87
2022-08-29 03:38:00,,0823.7,5.00,0.00,29.8,28.9,00.0,38.5,31.7,17.0,0000.0,0005.14,0002.59,0001.87
2022-08-29 03:39:00,,0823.7,5.00,0.00,29.8,28.9,00.0,38.5,31.8,17.2,0000.0,0004.88,0002.57,0001.87
2022-08-29 03:40:00,,0823.8,5.00,0.00,29.9,28.9,00.0,38.6,31.8,17.3,0000.0,0006.70,0002.52,0001.86
2022-08-29 03:41:00,,0823.8,4.99,0.00,29.9,28.0,00.0,38.5,31.8,17.5,0000.0,0007.03,0002.55,0001.88
2022-08-29 03:42:00,,0823.8,5.01,0.00,29.8,27.1,00.0,38.5,31.7,17.5,0000.0,0007.00,0002.56,0001.90
2022-08-29 03:43:00,,0823.8,5.00,0.00,29.8,27.1,00.0,38.5,31.6,17.4,0000.0,0007.07,0002.59,0001.92
2022-08-29 03:44:00,,0823.8,5.00,0.00,29.7,27.3,00.0,38.5,31.4,17.5,0000.0,0007.41,0002.62,0001.96
2022-08-29 03:45:00,,0823.8,5.00,0.00,29.7,27.6,00.0,38.4,31.4,17.4,0000.0,0007.40,0002.61,0001.97
2022-08-29 03:46:00,,0823.8,5.00,0.00,29.7,27.8,00.0,38.4,31.5,17.2,0000.0,0007.52,0002.65,0002.00
2022-08-29 03:47:00,,0823.8,4.99,0.00,29.7,28.1,00.0,38.4,31.5,17.2,0000.0,0007.56,0002.69,0002.04
2022-08-29 03:48:00,,0823.8,5.01,0.00,29.7,28.2,00.0,38.4,31.5,17.3,0000.0,0007.55,0002.74,0002.09
2022-08-29 03:49:00,,0823.8,5.00,0.00,29.7,28.4,00.0,38.5,31.6,17.4,0000.0,0007.83,0002.82,0002.12
2022-08-29 03:50:00,,0823.9,5.00,0.00,29.7,28.5,00.0,38.5,31.6,17.4,0000.0,0007.87,0002.86,0002.13
2022-08-29 03:51:00,,0823.9,5.00,0.00,29.7,28.6,00.0,38.5,31.6,17.3,0000.0,0006.77,0003.00,0002.17
2022-08-29 03:52:00,,0823.9,5.01,0.00,29.8,28.7,00.0,38.5,31.7,17.2,0000.0,0006.38,0003.05,0002.20
2022-08-29 03:53:00,,0823.9,5.00,0.00,29.8,28.8,00.0,38.5,31.7,17.0,0000.0,0006.43,0003.04,0002.22
2022-08-29 03:54:00,,0823.9,5.00,0.00,29.8,28.8,00.0,38.5,31.8,16.9,0000.0,0006.49,0003.04,0002.21
2022-08-29 03:55:00,,0823.9,5.00,0.00,29.8,28.9,00.0,38.6,31.7,16.8,0000.0,0006.14,0003.02,0002.20
2022-08-29 03:56:00,,0823.9,5.00,0.00,29.9,28.9,00.0,38.6,31.8,16.8,0000.0,0006.35,0003.04,0002.21
2022-08-29 03:57:00,,0824.0,5.00,0.00,29.9,29.0,00.0,38.6,31.8,16.8,0000.0,0007.40,0003.06,0002.20
2022-08-29 03:58:00,,0824.0,5.01,0.00,29.9,28.1,00.0,38.6,31.8,16.8,0000.0,0007.46,0003.11,0002.20
2022-08-29 03:59:00,,0824.0,4.99,0.00,29.9,27.0,00.0,38.6,31.7,16.8,0000.0,0007.73,0003.11,0002.19
